[[[{"header":{"parameterUnit":"kt","parameterCategory":2,"dx":1,"dy":1,"la1":30.253999710083008,"la2":30.299108505249023,"lo1":-89.0895004272461,"lo2":-89.04439544677734,"nx":28,"ny":28,"refTime":"2022-10-16T21:00:00:Z","depth":0,"parameterNumber":1,"parameterNumberName":"U-component_of_WINDS"},"data":[-3.4089,-3.4183,-3.4173,-3.4277,-3.4286,-3.4356,-3.4378,-3.4406,-3.4425,-3.451,-3.4557,-3.4557,-3.4574,-3.463,-3.4681,-3.4681,-3.4704,-3.4746,-3.4738,-3.4558,-3.4533,-3.4508,-3.4484,-3.475,-3.4751,-3.4926,-3.4927,-3.4928,-3.3963,-3.3972,-3.4023,-3.4065,-3.411,-3.4064,-3.4095,-3.4136,-3.42,-3.4225,-3.427,-3.4344,-3.4401,-3.4403,-3.4457,-3.4504,-3.4485,-3.4519,-3.4516,-3.4519,-3.4327,-3.4302,-3.4533,-3.4533,-3.4533,-3.4533,-3.4533,-3.4533,-3.373,-3.3786,-3.3805,-3.386,-3.3879,-3.3908,-3.3961,-3.3959,-3.401,-3.4062,-3.404,-3.4113,-3.4137,-3.4196,-3.4213,-3.4271,-3.4232,-3.4266,-3.4274,-3.4284,-3.4296,-3.4048,-3.4279,-3.4279,-3.4278,-3.4277,-3.4277,0,-3.3556,-3.3543,-3.359,-3.3635,-3.3675,-3.3709,-3.3738,-3.3771,-3.3739,-3.3783,-3.3845,-3.388,-3.3948,-3.4007,-3.4054,-3.4065,-3.4022,-3.4016,-3.4039,-3.4052,-3.4058,-3.4057,-3.3745,-3.4009,-3.4007,-3.4005,-3.4004,-3.4003,-3.3322,-3.3388,-3.3401,-3.3436,-3.3448,-3.3506,-3.3537,-3.3504,-3.354,-3.3572,-3.3624,-3.3682,-3.3725,-3.3828,-3.3825,-3.3877,-3.3856,-3.3959,-3.3864,-3.3874,-3.386,-3.3857,-3.3864,-3.3978,-3.3981,-3.3984,-3.3986,0,-3.3192,-3.3171,-3.327,-3.3276,-3.3279,-3.3352,-3.3357,-3.3413,-3.3403,-3.3479,-3.3495,-3.3481,-3.3543,-3.3522,-3.3589,-3.3577,-3.37,-3.3678,-3.3692,-3.3687,-3.3778,-3.377,-3.4072,-3.4111,-3.3833,-3.3836,-3.3838,0,-3.2984,-3.3072,-3.3037,-3.3095,-3.3193,-3.3155,-3.3254,-3.3254,-3.3271,-3.333,-3.3276,-3.3333,-3.3297,-3.3352,-3.3333,-3.343,-3.3442,-3.3439,-3.3433,-3.3444,-3.3445,-3.3463,-3.345,-3.3415,-3.3413,-3.3412,-3.3411,0,-3.2783,-3.2866,-3.296,-3.2975,-3.2989,-3.3035,-3.3043,-3.306,-3.3092,-3.3129,-3.315,-3.3196,-3.3222,-3.3261,-3.3236,-3.3173,-3.3353,-3.3261,-3.335,-3.3351,-3.339,-3.3388,-3.3661,-3.3409,-3.3409,-3.3408,-3.3407,0,-3.2611,-3.2647,-3.2786,-3.2796,-3.2819,-3.2882,-3.2923,-3.2971,-3.2994,-3.2985,-3.3014,-3.2975,-3.3055,-3.2966,-3.3077,-3.3002,-3.3032,-3.3035,-3.3041,-3.3047,-3.2947,-3.3104,-3.3365,-3.3392,-3.3054,-3.3051,-3.3048,0,-3.2388,-3.2521,-3.2487,-3.262,-3.2678,-3.2612,-3.2681,-3.2701,-3.2695,-3.2745,-3.2738,-3.2795,-3.2724,-3.2738,-3.2797,-3.2792,-3.2891,-3.2778,-3.2855,-3.2858,-3.2851,-3.3091,-3.3135,-3.331,-3.301,-3.3014,-3.3017,0,-3.221,-3.2223,-3.2249,-3.2264,-3.2282,-3.233,-3.2409,-3.2455,-3.2491,-3.2518,-3.2584,-3.2663,-3.2613,-3.2637,-3.2609,-3.2671,-3.2823,-3.2608,-3.2608,-3.2649,-3.2988,-3.303,-3.3059,-3.2792,-3.2796,-3.28,-3.2986,0,-3.1959,-3.2021,-3.2089,-3.2124,-3.2156,-3.2237,-3.221,-3.2249,-3.2218,-3.2208,-3.2304,-3.2313,-3.2362,-3.2388,-3.2358,-3.2504,-3.2477,-3.2421,-3.2332,-3.2489,-3.255,-3.2575,-3.2244,-3.2241,-3.2238,-3.2236,0,0,-3.1751,-3.1838,-3.1797,-3.1869,-3.1894,-3.1822,-3.1911,-3.1927,-3.1962,-3.1982,-3.1931,-3.2044,-3.2053,-3.2172,-3.2219,-3.2238,-3.2263,-3.2207,-3.2414,-3.2434,-3.2452,-3.2518,-3.2544,-3.2232,-3.2231,-3.2231,-3.223,0,-3.1652,-3.166,-3.1746,-3.1761,-3.178,-3.1764,-3.1785,-3.1791,-3.1789,-3.188,-3.182,-3.1874,-3.1963,-3.1982,-3.2003,-3.2193,-3.2144,-3.221,-3.2321,-3.2391,-3.2414,-3.2435,-3.2504,-3.2529,-3.2224,-3.2224,-3.2225,0,-3.1474,-3.1477,-3.1515,-3.1565,-3.1577,-3.1638,-3.1537,-3.1605,-3.165,-3.1567,-3.1658,-3.166,-3.1681,-3.1796,-3.1847,-3.1802,-3.2039,-3.1958,-3.1972,-3.1977,-3.2044,-3.2072,-3.2096,-3.1771,-3.177,-3.1768,0,0,-3.1393,-3.1448,-3.144,-3.1542,-3.1553,-3.153,-3.1558,-3.1529,-3.1548,-3.1556,-3.1556,-3.1578,-3.1629,-3.1664,-3.1711,-3.184,-3.1843,-3.1903,-3.1925,-3.1942,-3.1957,-3.2028,-3.2056,-3.1763,-3.1763,-3.1762,0,0,-3.1354,-3.1347,-3.1311,-3.1425,-3.1445,-3.1443,-3.1508,-3.1464,-3.1502,-3.149,-3.1444,-3.1448,-3.1554,-3.1558,-3.1487,-3.1679,-3.1591,-3.1607,-3.1672,-3.1699,-3.172,-3.1717,-3.1384,0,0,0,0,0,-3.1237,-3.1347,-3.1315,-3.1329,-3.1392,-3.1462,-3.147,-3.1433,-3.1372,-3.1424,-3.1417,-3.1362,-3.151,-3.1446,-3.1463,-3.1542,-3.1691,-3.1704,-3.1716,-3.183,-3.1859,-3.1882,0,0,0,0,0,0,-3.1243,-3.1261,-3.1312,-3.1315,-3.1329,-3.1457,-3.1346,-3.1339,-3.1366,-3.1354,-3.1365,-3.1362,-3.1334,-3.1436,-3.1451,-3.1527,-3.1379,-3.1696,-3.1707,-3.1717,-3.184,-3.1863,-3.1883,0,0,0,0,0,-3.1247,-3.1261,-3.1371,-3.1314,-3.1326,-3.1304,-3.1341,-3.1335,-3.1355,-3.1343,-3.1338,-3.1325,-3.1337,-3.1347,-3.1444,-3.1521,-3.1368,-3.1374,-3.1703,-3.1712,-3.1719,-3.1851,0,0,0,0,0,0,-3.125,-3.1256,-3.1372,-3.1375,-3.1268,-3.1296,-3.1299,-3.1331,-3.1341,-3.1338,-3.1299,-3.129,-3.134,-3.1348,-3.1356,-3.1521,-3.136,-3.1366,-3.1369,-3.171,-3.1716,-3.1722,0,0,0,0,0,0,-3.1248,-3.1259,-3.1373,-3.1318,-3.1314,-3.1289,-3.1292,-3.1368,-3.1342,-3.1297,-3.1289,-3.1295,-3.1328,-3.1349,-3.1355,-3.1476,-3.1353,-3.1359,-3.1362,-3.1365,-3.1715,-3.172,0,0,0,0,0,0,-3.1252,-3.1261,-3.1317,-3.1314,-3.131,-3.1334,-3.1356,-3.1423,-3.1293,-3.1298,-3.1281,-3.1275,-3.1331,-3.1336,-3.1355,-3.1474,-3.1476,-3.1353,-3.1357,-3.136,-3.1361,0,0,0,0,0,0,0,-3.1255,-3.1202,-3.1358,-3.131,-3.1307,-3.1397,-3.1397,-3.1398,-3.1292,-3.1287,-3.1282,-3.1278,-3.1321,-3.1327,-3.1333,-3.1472,0,0,-3.1352,-3.1355,0,0,0,0,0,0,0,0,-3.1198,-3.1201,-3.1358,-3.1359,-3.1359,-3.1397,-3.1397,-3.1398,-3.1291,-3.1287,-3.1283,-3.1279,-3.1322,-3.1327,-3.1332,0,0,0,0,0,0,0,0,0,0,0,0,0,0,0,-3.1358,-3.1359,0,-3.1397,-3.1397,-3.1398,-3.1291,-3.1287,-3.1284,-3.1281,-3.1324,-3.1328,-3.1332,0,0,0,0,0,0,0,0,0,0,0,0,0,0,0,0,0,0,0,0,0,0,0,0,0,0,0,0,0,0,0,0,0,0,0,0,0,0,0,0,0,0,0,0,0,0,0,0,0,0,0,0,0,0,0,0,0,0,0,0,0,0,0,0,0,0,0,0,0]}],[{"header":{"parameterUnit":"kt","parameterCategory":2,"dx":1,"dy":1,"la1":30.253999710083008,"la2":30.299108505249023,"lo1":-89.0895004272461,"lo2":-89.04439544677734,"nx":28,"ny":28,"refTime":"2022-10-16T21:00:00:Z","depth":0,"parameterNumber":2,"parameterNumberName":"V-component_of_WINDS"},"data":[3.2602,3.2616,3.2631,3.2653,3.267,3.2687,3.2697,3.2713,3.2728,3.2749,3.2764,3.2778,3.2798,3.2817,3.2833,3.2839,3.2844,3.284,3.2847,3.2857,3.2859,3.2861,3.2859,3.2841,3.2841,3.2836,3.2836,3.2836,3.2611,3.2628,3.2644,3.2668,3.2682,3.2696,3.2716,3.2726,3.2741,3.2759,3.2774,3.2793,3.2809,3.283,3.2848,3.2853,3.286,3.2857,3.2857,3.286,3.287,3.2868,3.2852,3.2852,3.2852,3.2852,3.2852,3.2852,3.263,3.2638,3.2661,3.2678,3.2694,3.2711,3.272,3.2738,3.2752,3.2773,3.2786,3.2802,3.2822,3.2848,3.286,3.2872,3.2877,3.2878,3.2878,3.2878,3.2876,3.2883,3.2875,3.2875,3.2876,3.2876,3.2876,0,3.2649,3.2661,3.2676,3.2696,3.2709,3.2725,3.2742,3.2748,3.2775,3.2785,3.2802,3.2813,3.2835,3.285,3.2869,3.2881,3.2894,3.2896,3.2897,3.2891,3.2885,3.2889,3.2906,3.2896,3.2896,3.2896,3.2897,3.2897,3.267,3.2676,3.2707,3.2716,3.2729,3.2742,3.2753,3.2776,3.2786,3.2809,3.2814,3.283,3.2844,3.2866,3.2884,3.29,3.2906,3.2901,3.2908,3.2904,3.2907,3.2906,3.2907,3.2899,3.2899,3.2898,3.2898,0,3.2681,3.2703,3.2717,3.2746,3.2753,3.2758,3.2783,3.279,3.2806,3.2818,3.2822,3.2846,3.286,3.288,3.2899,3.2909,3.2917,3.2922,3.2911,3.2913,3.2911,3.2911,3.2899,3.2899,3.2918,3.2918,3.2918,0,3.2707,3.2714,3.2747,3.2754,3.2762,3.2785,3.2793,3.2807,3.2824,3.2834,3.2853,3.2861,3.2884,3.2895,3.2909,3.2919,3.2922,3.293,3.2934,3.2929,3.2928,3.2933,3.2934,3.2941,3.2941,3.2941,3.2941,0,3.2722,3.2746,3.2757,3.2766,3.2797,3.2801,3.2813,3.2833,3.2842,3.2857,3.2864,3.2879,3.2887,3.2899,3.2917,3.2921,3.2929,3.2938,3.2937,3.2936,3.2937,3.2936,3.2922,3.2941,3.2941,3.2941,3.2941,0,3.2746,3.2762,3.2774,3.28,3.2806,3.2812,3.283,3.284,3.2858,3.2868,3.288,3.2894,3.2904,3.2912,3.2926,3.2926,3.2933,3.2942,3.2942,3.2943,3.2952,3.2941,3.2926,3.2925,3.2946,3.2946,3.2946,0,3.2757,3.2774,3.2794,3.2805,3.2815,3.2837,3.2844,3.286,3.2873,3.2884,3.2898,3.2909,3.2919,3.2925,3.293,3.2944,3.2943,3.2945,3.2959,3.2959,3.2954,3.294,3.2933,3.2927,3.2947,3.2947,3.2947,0,3.2767,3.2804,3.2804,3.2816,3.284,3.2848,3.2857,3.2873,3.2879,3.2894,3.2901,3.2916,3.2925,3.2934,3.2947,3.295,3.2945,3.2958,3.2959,3.2955,3.2948,3.2942,3.2941,3.2952,3.2952,3.2952,3.2947,0,3.2801,3.2811,3.2813,3.2836,3.2845,3.2852,3.2873,3.2881,3.2893,3.2906,3.2917,3.2932,3.2947,3.295,3.2961,3.2962,3.2965,3.2973,3.2982,3.2972,3.2971,3.2971,3.2982,3.2983,3.2983,3.2983,0,0,3.2805,3.2821,3.2841,3.285,3.286,3.288,3.2886,3.2897,3.2918,3.2924,3.2929,3.2952,3.2964,3.2974,3.2973,3.2979,3.2981,3.2982,3.2977,3.2976,3.2975,3.2974,3.2973,3.2984,3.2984,3.2984,3.2984,0,3.2822,3.2835,3.2841,3.2854,3.2873,3.2888,3.2889,3.2911,3.292,3.293,3.2945,3.2953,3.297,3.2982,3.2989,3.2982,3.2993,3.2985,3.2975,3.2979,3.2978,3.2977,3.2975,3.2974,3.2985,3.2985,3.2985,0,3.2836,3.2853,3.2858,3.288,3.2892,3.2902,3.2917,3.2925,3.2933,3.2952,3.2961,3.2972,3.2988,3.2995,3.2998,3.3002,3.3003,3.3005,3.3004,3.3004,3.3009,3.3007,3.3006,3.3024,3.3024,3.3024,0,0,3.2847,3.2857,3.2881,3.2885,3.2892,3.2912,3.2919,3.2931,3.2946,3.2951,3.2965,3.2978,3.2989,3.2995,3.3005,3.3009,3.3014,3.3009,3.3008,3.3006,3.3006,3.301,3.3008,3.3024,3.3024,3.3024,0,0,3.2852,3.2881,3.289,3.2897,3.2911,3.2934,3.2935,3.2947,3.2958,3.2959,3.2979,3.2983,3.2989,3.2998,3.3,3.3008,3.3017,3.3017,3.3002,3.3,3.2998,3.2995,3.3015,0,0,0,0,0,3.2879,3.2878,3.2886,3.289,3.2916,3.293,3.2933,3.295,3.2956,3.2957,3.2971,3.2981,3.3003,3.3005,3.3008,3.3006,3.3027,3.3026,3.3026,3.3008,3.3005,3.3003,0,0,0,0,0,0,3.2881,3.2886,3.2886,3.2909,3.2915,3.293,3.2944,3.2949,3.2957,3.2959,3.2978,3.2982,3.2995,3.3004,3.3007,3.3005,3.3015,3.3027,3.3026,3.3026,3.3007,3.3005,3.3003,0,0,0,0,0,3.2882,3.2886,3.2924,3.2909,3.2914,3.2937,3.2945,3.2948,3.2955,3.2975,3.2979,3.2967,3.2995,3.2998,3.3006,3.3003,3.3013,3.3014,3.3026,3.3026,3.3026,3.3006,0,0,0,0,0,0,3.2883,3.289,3.2925,3.2927,3.2911,3.2936,3.2941,3.2948,3.2971,3.2975,3.2965,3.2966,3.2994,3.2997,3.2999,3.3002,3.3012,3.3013,3.3013,3.3026,3.3026,3.3026,0,0,0,0,0,0,3.2887,3.2891,3.2926,3.2927,3.293,3.2935,3.2939,3.2948,3.2971,3.2959,3.2961,3.2965,3.299,3.2996,3.2998,3.3011,3.3011,3.3011,3.3012,3.3012,3.3026,3.3026,0,0,0,0,0,0,3.2889,3.2893,3.2927,3.2929,3.2931,3.2957,3.2943,3.2968,3.2973,3.2957,3.2974,3.2974,3.2989,3.2991,3.2997,3.3009,3.301,3.3011,3.3011,3.3012,3.3012,0,0,0,0,0,0,0,3.2891,3.2865,3.2912,3.293,3.2932,3.2948,3.2948,3.2949,3.2973,3.2974,3.2974,3.2974,3.3006,3.3007,3.3008,3.3007,0,0,3.3011,3.3011,0,0,0,0,0,0,0,0,3.2864,3.2865,3.2912,3.2913,3.2913,3.2948,3.2948,3.2949,3.2973,3.2974,3.2974,3.2974,3.3006,3.3007,3.3007,0,0,0,0,0,0,0,0,0,0,0,0,0,0,0,3.2912,3.2913,0,3.2948,3.2948,3.2949,3.2973,3.2974,3.2974,3.2974,3.3006,3.3007,3.3007,0,0,0,0,0,0,0,0,0,0,0,0,0,0,0,0,0,0,0,0,0,0,0,0,0,0,0,0,0,0,0,0,0,0,0,0,0,0,0,0,0,0,0,0,0,0,0,0,0,0,0,0,0,0,0,0,0,0,0,0,0,0,0,0,0,0,0,0,0]}]]]